Location: Mentone
(34.5413°N, 85.5351°W)
Time: 05:05:34
(UTC-05:00)

Vanguard 3 - All Passes

Search period start: 21 September 2014 00:00
Search period end: 01 October 2014 00:00
Orbit: 508 x 3279 km, 33.3° (Epoch: 20 September)

Date Brightness Start Highest point End Pass type
(mag) Time Alt. Az. Time Alt. Az. Time Alt. Az.
21 Sep - 08:19:59 10° SSW 08:27:16 39° SE 08:39:24 10° E daylight
21 Sep - 10:30:04 10° WSW 10:40:27 78° SSE 10:58:21 10° E daylight
21 Sep - 12:42:30 10° W 12:56:37 85° S 13:16:56 10° ESE daylight
21 Sep - 14:56:32 10° W 15:13:47 64° SSW 15:33:01 10° SE daylight
21 Sep - 17:13:29 10° W 17:29:29 33° SW 17:44:16 10° SSE daylight
22 Sep - 07:10:41 10° S 07:15:46 20° SE 07:23:00 10° E daylight
22 Sep - 09:18:47 10° SW 09:27:16 63° SSE 09:42:26 10° E daylight
22 Sep - 11:30:14 10° W 11:42:03 86° S 12:01:18 10° E daylight
22 Sep - 13:43:19 10° W 13:58:50 75° SSW 14:19:02 10° ESE daylight
22 Sep - 15:58:20 10° W 16:15:22 46° SW 16:32:50 10° SSE daylight
22 Sep - 18:19:47 10° W 18:29:55 16° SW 18:39:21 10° SSW daylight
23 Sep - 08:08:10 10° SW 08:14:58 43° SE 08:26:40 10° E daylight
23 Sep - 10:18:28 10° WSW 10:28:10 81° SSE 10:45:21 10° E daylight
23 Sep - 12:30:43 10° W 12:44:01 83° S 13:04:02 10° ESE daylight
23 Sep - 14:44:27 10° W 15:00:47 59° SSW 15:20:02 10° SE daylight
23 Sep - 17:01:36 10° W 17:16:22 28° SW 17:30:43 10° S daylight
24 Sep - 06:58:31 10° S 07:03:29 23° SE 07:10:49 10° E daylight
24 Sep - 09:07:11 10° WSW 09:15:04 68° SSE 09:29:30 10° E daylight
24 Sep - 11:18:36 10° W 11:29:41 86° S 11:48:20 10° E daylight
24 Sep - 13:31:24 10° W 13:46:02 70° SSW 14:06:02 10° ESE daylight
24 Sep - 15:46:19 10° W 16:02:17 41° SW 16:19:32 10° SSE daylight
24 Sep - 18:09:56 10° WSW 18:16:56 13° SW 18:23:45 10° SSW daylight
25 Sep - 07:56:28 10° SW 08:02:49 47° SSE 08:13:57 10° E daylight
25 Sep - 10:06:56 10° W 10:15:59 83° S 10:32:23 10° E daylight
25 Sep - 12:18:58 10° W 12:31:29 79° SSW 12:51:02 10° ESE daylight
25 Sep - 14:32:29 10° W 14:47:49 53° SSW 15:06:49 10° SE daylight
25 Sep - 16:50:06 10° W 17:03:18 24° SW 17:16:43 10° S daylight
26 Sep - 06:46:32 10° SSW 06:51:19 26° SE 06:58:35 10° E daylight
26 Sep - 08:55:40 10° WSW 09:03:00 72° SSE 09:16:36 10° E daylight
26 Sep - 11:07:01 10° W 11:17:23 85° S 11:35:20 10° E daylight
26 Sep - 13:19:34 10° W 13:33:17 65° SSW 13:52:53 10° SE daylight
26 Sep - 15:34:30 10° W 15:49:15 35° SW 16:05:55 10° SSE daylight
27 Sep - 05:39:22 10° SE 05:40:19 10° SE 05:41:20 10° ESE visible
27 Sep - 07:44:52 10° SW 07:50:47 52° SSE 08:01:17 10° E daylight
27 Sep - 09:55:27 10° W 10:03:53 85° S 10:19:25 10° E daylight
27 Sep - 12:07:18 10° W 12:18:59 75° SSW 12:37:55 10° ESE daylight
27 Sep - 14:20:39 10° W 14:34:56 47° SSW 14:53:22 10° SE daylight
27 Sep - 16:39:07 10° W 16:50:21 19° SW 17:02:07 10° S daylight
28 Sep - 06:34:42 10° SSW 06:39:16 30° SE 06:46:20 10° E daylight
28 Sep - 08:44:13 10° WSW 08:51:03 77° SSE 09:03:46 10° E daylight
28 Sep - 10:55:29 10° W 11:05:09 82° S 11:22:18 10° ESE daylight
28 Sep - 13:07:50 10° W 13:20:37 59° SSW 13:39:32 10° SE daylight
28 Sep - 15:22:58 10° W 15:36:20 30° SW 15:51:56 10° SSE daylight
29 Sep - 05:26:05 10° SSE 05:28:13 13° SE 05:30:44 10° ESE visible
29 Sep - 07:33:21 10° SW 07:38:52 58° SSE 07:48:40 10° E daylight
29 Sep - 09:44:00 10° W 09:51:52 85° S 10:06:29 10° E daylight
29 Sep - 11:55:40 10° W 12:06:34 70° SSW 12:24:42 10° ESE daylight
29 Sep - 14:08:59 10° W 14:22:09 41° SSW 14:39:39 10° SSE daylight
29 Sep - 16:29:02 10° WSW 16:37:32 15° SW 16:46:33 10° SSW daylight
30 Sep - 06:22:58 10° SSW 06:27:19 34° SSE 06:34:06 10° E daylight
30 Sep - 08:32:49 10° WSW 08:39:10 80° S 08:51:00 10° E daylight
30 Sep - 10:43:58 10° W 10:52:59 79° S 11:09:13 10° ESE daylight
30 Sep - 12:56:11 10° W 13:08:02 52° SSW 13:26:01 10° SE daylight
30 Sep - 15:11:47 10° W 15:23:32 24° SW 15:37:31 10° S daylight
